DW0333 Tranby-Lier NO current weather conditions

sailwx.info

Wind from 281 at 5 knots

Air temperature 10.6° C
Dewpoint 7.6° C

Last reported at 2014-Oct-20 10:39 UTC.
Time now 2014-Oct-20 11:29 UTC

Location: N 59°50' E 010°17'.
View on Google Maps.

See reports from other nearby stations

  
Tides and Currents Weather Stations Pressure Air Temp Water Temp Dewpoint Dewpoint Depression Visibility Wind Speed Wind Dir Waves Ship Positions
date/time (UTC)wind fromknots sea level pressurealtimeterstation pressurevisibilityair tempwater tempwave heightnotes
2014-Oct-20 10:39 281 5 10.6
2014-Oct-20 10:23 271 4 10.6
2014-Oct-20 10:08 263 4 10.0
2014-Oct-20 09:52 277 4 10.0
2014-Oct-20 09:37 327 5 9.4
2014-Oct-20 09:22 296 5 9.4
2014-Oct-20 09:07 292 6 8.9
2014-Oct-20 08:52 281 6 7.8
2014-Oct-20 08:37 313 4 7.2
2014-Oct-20 08:22 308 2 7.8
2014-Oct-20 08:07 300 4 7.2
2014-Oct-20 07:51 295 3 7.2
2014-Oct-20 07:37 275 3 7.8
2014-Oct-20 07:21 286 4 7.8
2014-Oct-20 07:06 290 6 7.8
2014-Oct-20 06:51 304 3 7.8
2014-Oct-20 06:35 292 3 7.8
2014-Oct-20 06:20 288 3 7.8
2014-Oct-20 06:04 283 2 8.3
2014-Oct-20 05:49 287 2 8.3
2014-Oct-20 05:33 253 1 8.3
2014-Oct-20 05:18 277 1 8.3
2014-Oct-20 05:03 263 4 8.3
2014-Oct-20 04:48 282 2 8.3
2014-Oct-20 04:32 257 1 8.3
2014-Oct-20 04:18 238 0 8.3
2014-Oct-20 04:02 230 1 8.3
2014-Oct-20 03:47 250 1 8.3
2014-Oct-20 03:33 265 1 8.3
2014-Oct-20 03:18 245 3 8.3
2014-Oct-20 03:03 273 2 8.3
2014-Oct-20 02:48 267 3 8.3
2014-Oct-20 02:32 267 1 8.3
2014-Oct-20 02:17 155 0 8.3
2014-Oct-20 02:01 050 0 8.3
2014-Oct-20 01:46 050 0 8.3
2014-Oct-20 01:31 182 8.9
2014-Oct-20 01:14 182 0 8.9
2014-Oct-20 01:00 212 0 8.9
2014-Oct-20 00:44 225 1 8.9
2014-Oct-20 00:29 165 0 8.9
2014-Oct-20 00:14 119 0 8.9
2014-Oct-19 23:58 104 1 8.9
2014-Oct-19 23:43 128 0 8.9
2014-Oct-19 23:28 159 1 8.9
2014-Oct-19 23:13 167 2 9.4
2014-Oct-19 22:57 162 4 9.4
2014-Oct-19 22:42 201 4 9.4
2014-Oct-19 22:28 217 3 9.4
2014-Oct-19 22:13 212 3 9.4
2014-Oct-19 21:57 129 1 9.4
2014-Oct-19 21:43 212 3 9.4
2014-Oct-19 21:28 154 3 9.4
2014-Oct-19 21:11 141 4 10.0
2014-Oct-19 20:56 161 3 10.0
2014-Oct-19 20:41 138 4 10.0
2014-Oct-19 20:27 152 4 10.0
2014-Oct-19 20:11 148 4 10.0
2014-Oct-19 19:57 192 3 10.0
2014-Oct-19 19:42 192 4 10.0
2014-Oct-19 19:24 147 5 10.0
2014-Oct-19 19:09 160 4 10.0
2014-Oct-19 18:54 173 4 10.6
2014-Oct-19 18:39 136 3 10.6
2014-Oct-19 18:23 186 3 10.6
2014-Oct-19 18:08 152 4 10.6
2014-Oct-19 17:53 137 4 10.6
2014-Oct-19 17:38 135 4 10.6
2014-Oct-19 17:23 176 3 10.6
2014-Oct-19 17:08 233 4 10.6
2014-Oct-19 16:52 207 4 10.6
2014-Oct-19 16:37 113 5 10.6
2014-Oct-19 16:22 146 2 10.6
2014-Oct-19 16:07 129 2 10.6
2014-Oct-19 15:52 146 1 10.6
2014-Oct-19 15:38 221 3 10.6
2014-Oct-19 15:22 139 4 10.6
2014-Oct-19 15:07 130 4 10.6
2014-Oct-19 14:51 126 4 10.6
2014-Oct-19 14:36 144 4 10.6
2014-Oct-19 14:23 169 4 10.6
2014-Oct-19 14:07 207 5 10.6
2014-Oct-19 13:52 176 5 11.1
2014-Oct-19 13:35 270 5 11.1
2014-Oct-19 13:20 196 5 11.1
2014-Oct-19 13:04 124 5 10.6
2014-Oct-19 12:49 207 4 11.1
2014-Oct-19 12:34 165 4 11.1
2014-Oct-19 12:18 217 4 10.6
2014-Oct-19 12:03 189 5 10.6
2014-Oct-19 11:48 179 4 10.6
2014-Oct-19 11:33 167 4 10.6
2014-Oct-19 11:18 200 4 10.0
2014-Oct-19 11:03 279 3 10.0
2014-Oct-19 10:47 242 4 10.0
2014-Oct-19 10:32 177 4 10.0
2014-Oct-19 10:17 196 5 10.0
2014-Oct-19 10:02 212 4 10.0
2014-Oct-19 09:47 200 3 10.0
2014-Oct-19 09:32 207 3 9.4
2014-Oct-19 09:16 254 4 9.4
2014-Oct-19 09:01 202 3 9.4
2014-Oct-19 08:46 154 3 9.4
2014-Oct-19 08:31 193 3 9.4
2014-Oct-19 08:16 150 3 9.4
2014-Oct-19 08:01 154 2 9.4
2014-Oct-19 07:46 162 3 9.4
2014-Oct-19 07:29 154 3 9.4
2014-Oct-19 07:14 156 2 9.4
2014-Oct-19 06:59 181 3 9.4
2014-Oct-19 06:44 167 3 9.4
2014-Oct-19 06:28 167 2 9.4
2014-Oct-19 06:14 144 3 9.4
2014-Oct-19 05:58 190 3 9.4
2014-Oct-19 05:44 185 2 9.4
2014-Oct-19 05:27 207 2 9.4
2014-Oct-19 05:12 233 2 9.4
2014-Oct-19 04:58 195 1 9.4
2014-Oct-19 04:42 197 2 9.4
2014-Oct-19 04:27 203 1 9.4
2014-Oct-19 04:12 244 1 9.4
2014-Oct-19 03:57 179 1 9.4
2014-Oct-19 03:42 231 2 9.4
2014-Oct-19 03:27 199 2 10.0
2014-Oct-19 03:11 197 3 10.0
2014-Oct-19 02:56 174 1 10.0
2014-Oct-19 02:41 178 2 10.0
2014-Oct-19 02:27 183 2 10.0
2014-Oct-19 02:11 183 2 10.0
2014-Oct-19 01:54 178 1 10.0
2014-Oct-19 01:39 227 2 10.0
2014-Oct-19 01:24 155 2 10.0
2014-Oct-19 01:09 148 2 10.0
2014-Oct-19 00:53 138 1 10.0
2014-Oct-19 00:38 168 1 10.0
2014-Oct-19 00:23 249 0 10.0
2014-Oct-19 00:08 234 1 10.0
2014-Oct-18 23:53 184 1 10.0
2014-Oct-18 23:37 147 1 10.0
2014-Oct-18 23:22 162 0 10.0
2014-Oct-18 23:07 207 0 10.0
2014-Oct-18 22:52 262 0 10.0
2014-Oct-18 22:37 169 0 10.0
2014-Oct-18 22:22 192 1 10.0
2014-Oct-18 22:06 150 0 10.0
2014-Oct-18 21:51 186 0 10.0
2014-Oct-18 21:36 241 0 10.0
2014-Oct-18 21:21 144 1 10.0
2014-Oct-18 21:06 245 1 10.0
2014-Oct-18 20:51 212 2 10.0
2014-Oct-18 20:37 156 2 10.0
2014-Oct-18 20:19 177 3 10.0
2014-Oct-18 20:04 163 3 9.4
2014-Oct-18 19:49 152 3 9.4
2014-Oct-18 19:34 130 2 8.9
2014-Oct-18 19:18 201 3 8.9
2014-Oct-18 19:03 184 5 8.9
2014-Oct-18 18:48 142 6 8.9
2014-Oct-18 18:33 161 6 8.3
2014-Oct-18 18:17 140 6 8.3
2014-Oct-18 18:02 111 5 7.8
2014-Oct-18 17:47 152 5 7.8
2014-Oct-18 17:32 111 4 7.8
2014-Oct-18 17:17 163 4 7.2
2014-Oct-18 17:02 086 4 7.2
2014-Oct-18 16:47 106 5 7.2
2014-Oct-18 16:31 100 5 7.2
2014-Oct-18 16:16 099 5 7.2
2014-Oct-18 16:02 125 4 7.2
2014-Oct-18 15:46 105 3 7.2
2014-Oct-18 15:31 093 3 6.7
2014-Oct-18 15:16 078 3 6.1
2014-Oct-18 15:00 057 2 5.6
2014-Oct-18 14:44 032 2 5.6
2014-Oct-18 14:29 086 1 5.6
2014-Oct-18 14:15 046 2 5.0
2014-Oct-18 13:59 070 0 5.0
2014-Oct-18 13:43 074 1 5.0
2014-Oct-18 13:28 111 2 5.6
2014-Oct-18 13:13 073 0 5.6
2014-Oct-18 12:58 113 1 5.6
2014-Oct-18 12:42 059 2 5.0
2014-Oct-18 12:27 051 1 5.0
2014-Oct-18 12:12 063 0 5.0
2014-Oct-18 11:57 021 0 5.0
2014-Oct-18 11:42 042 0 4.4
2014-Oct-18 11:27 044 0 4.4
2014-Oct-18 11:12 059 0 4.4